Home   Weather   Egersund   Past weeks

Flag for Norway Past Weather in Egersund, Norway — Yesterday and Last 2 Weeks

Now
44 °F

Quite cool.


Feels Like: 44 °F
Forecast: 36 / 42 °F
Wind: 2 mph from North

Location: Ualand-Bjuland

Current Time: Jan 20, 2017 at 3:03:23 am

Latest Report: Jan 20, 2017 at 2:00 am


Visibility: N/A

Pressure: 30.46 "Hg

Humidity: 92%

Dew Point: 42 °F

Location of EgersundLocation

Past Weather in Egersund — Graph

°F

Egersund Temperature Yesterday

Maximum temperature yesterday: 46 °F (at 11:00 pm)
Minimum temperature yesterday: 34 °F (at 5:00 am)
Average temperature yesterday: 38 °F

High & Low Weather Summary for the Past Weeks

 TemperatureHumidityPressure
High46 °F (Jan 19, 11:00 pm)100% (Jan 6, 10:00 pm)30.71 "Hg (Jan 6, 10:00 pm)
Low10 °F (Jan 16, 8:00 am)57% (Jan 5, 1:00 pm)28.64 "Hg (Jan 11, 10:00 am)
Average31 °F89%29.98 "Hg
* Reported Jan 5 1:00 am — Jan 20 1:00 am, Egersund, Weather by CustomWeather, © 2017

Note: Actual official high and low records may vary slightly from our data, if they occured in-between our weather recording intervals... More about our weather records

Advertising

Egersund Weather History for the Previous 24 Hours

Scroll right to see more
 ConditionsComfort  
Time TempWeatherWind HumidityBarometerVisibility
1:00 am
Fri, Jan 20
42 °FQuite cool.1 mph88%30.46 "HgN/A
12:00 am46 °FCool.6 mph85%30.46 "HgN/A
11:00 pm
Thu, Jan 19
46 °FCool.6 mph84%30.46 "HgN/A
10:00 pm40 °FQuite cool.1 mph99%30.47 "HgN/A
9:00 pm40 °FQuite cool.1 mph99%30.47 "HgN/A
8:00 pm39 °FChilly.1 mph99%30.46 "HgN/A
7:00 pm37 °FDrizzle. Low clouds.1 mph99%30.46 "Hg6 mi
6:00 pm38 °FChilly.1 mph98%30.45 "HgN/A
5:00 pm38 °FChilly.1 mph98%30.45 "HgN/A
4:00 pm41 °FQuite cool.1 mph96%30.45 "HgN/A
3:00 pm42 °FQuite cool.1 mph93%30.45 "HgN/A
2:00 pm44 °FQuite cool.2 mph97%30.45 "HgN/A
1:00 pm43 °FDrizzle. Low clouds.2 mph100%30.46 "Hg9 mi
12:00 pm43 °FQuite cool.3 mph100%30.45 "HgN/A
10:00 am37 °FChilly.1 mph100%30.45 "HgN/A
9:00 am37 °FChilly.1 mph100%30.45 "HgN/A
8:00 am35 °FChilly.2 mph99%30.44 "HgN/A
7:00 am35 °FDrizzle. Low clouds.1 mph99%30.45 "Hg2 mi
6:00 am34 °FChilly.2 mph100%30.46 "HgN/A
5:00 am34 °FChilly.No wind99%30.47 "HgN/A
4:00 am35 °FChilly.1 mph100%30.46 "HgN/A
3:00 am35 °FChilly.No wind99%30.45 "HgN/A
Weather by CustomWeather, © 2017

See weather overviewHow to use our weather pages